QPF
0.00 0.00 0.00 0.00 0.00 0.00 0.00 0.00 0.00 0.00 0.00 0.00 0.00 0.00 0.00 0.00 0.00 0.00 0.00 0.00 0.00 0.00 0.00 0.01 0.01 0.01 0.01 0.02 0.02 0.02 0.02 0.02 0.02 0.02 0.02 0.03 0.03 0.03
0.00 0.00 0.00 0.00 0.00 0.00 0.00 0.00 0.00 0.00 0.00 0.00 0.00 0.00 0.00 0.00 0.00 0.00 0.00 0.00 0.00 0.00 0.00 0.01 0.01 0.01 0.01 0.02 0.02 0.02 0.02 0.03 0.03 0.03 0.04 0.04 0.05 0.05
0.00 0.00 0.00 0.00 0.00 0.00 0.00 0.00 0.00 0.00 0.00 0.00 0.00 0.00 0.00 0.00 0.00 0.00 0.00 0.00 0.00 0.00 0.00 0.00 0.01 0.01 0.01 0.02 0.02 0.02 0.03 0.03 0.03 0.04 0.04 0.05 0.06 0.06
0.00 0.00 0.00 0.00 0.00 0.00 0.00 0.00 0.00 0.00 0.00 0.00 0.00 0.00 0.00 0.00 0.00 0.00 0.00 0.00 0.00 0.00 0.00 0.00 0.01 0.01 0.01 0.01 0.02 0.02 0.03 0.03 0.03 0.03 0.04 0.04 0.05 0.06
0.00 0.00 0.00 0.00 0.00 0.00 0.00 0.00 0.00 0.00 0.00 0.00 0.00 0.00 0.00 0.00 0.00 0.00 0.00 0.00 0.00 0.00 0.00 0.00 0.00 0.01 0.01 0.01 0.02 0.02 0.02 0.03 0.03 0.03 0.03 0.03 0.04 0.04
0.00 0.00 0.00 0.00 0.00 0.00 0.00 0.00 0.00 0.00 0.01 0.01 0.01 0.01 0.01 0.00 0.01 0.01 0.01 0.00 0.00 0.00 0.00 0.00 0.00 0.00 0.01 0.01 0.01 0.01 0.02 0.02 0.02 0.02 0.02 0.03 0.02 0.02
0.00 0.00 0.00 0.00 0.00 0.00 0.00 0.01 0.01 0.01 0.02 0.02 0.02 0.01 0.01 0.01 0.01 0.01 0.01 0.01 0.01 0.00 0.00 0.00 0.00 0.00 0.00 0.00 0.00 0.00 0.00 0.01 0.01 0.02 0.02 0.02 0.02 0.02
0.00 0.00 0.00 0.00 0.00 0.00 0.00 0.01 0.01 0.01 0.02 0.03 0.03 0.02 0.01 0.01 0.02 0.02 0.02 0.02 0.01 0.00 0.01 0.01 0.00 0.00 0.00 0.00 0.00 0.00 0.01 0.01 0.02 0.02 0.03 0.03 0.03 0.03
0.00 0.00 0.00 0.00 0.00 0.00 0.00 0.00 0.00 0.01 0.01 0.02 0.03 0.02 0.02 0.01 0.02 0.02 0.02 0.03 0.02 0.01 0.02 0.02 0.01 0.00 0.00 0.00 0.00 0.01 0.01 0.02 0.02 0.02 0.03 0.03 0.04 0.03
0.00 0.00 0.00 0.00 0.00 0.00 0.00 0.00 0.00 0.00 0.01 0.01 0.01 0.01 0.01 0.02 0.03 0.05 0.06 0.06 0.04 0.02 0.02 0.02 0.01 0.00 0.00 0.00 0.00 0.00 0.01 0.01 0.02 0.02 0.03 0.03 0.03 0.03
0.00 0.00 0.00 0.00 0.00 0.01 0.01 0.01 0.01 0.01 0.01 0.01 0.02 0.03 0.04 0.05 0.06 0.07 0.08 0.07 0.05 0.02 0.01 0.02 0.01 0.01 0.00 0.00 0.00 0.00 0.00 0.01 0.01 0.02 0.02 0.03 0.03 0.03
0.00 0.00 0.00 0.01 0.01 0.02 0.02 0.03 0.03 0.02 0.01 0.02 0.02 0.02 0.02 0.02 0.02 0.03 0.04 0.05 0.04 0.03 0.01 0.02 0.02 0.02 0.02 0.01 0.00 0.00 0.00 0.00 0.00 0.01 0.01 0.01 0.02 0.02
0.01 0.01 0.00 0.01 0.01 0.02 0.03 0.03 0.03 0.04 0.05 0.05 0.04 0.03 0.02 0.01 0.01 0.01 0.01 0.03 0.04 0.04 0.02 0.03 0.04 0.03 0.04 0.02 0.00 0.00 0.00 0.00 0.00 0.00 0.01 0.01 0.01 0.01
0.01 0.01 0.00 0.01 0.02 0.03 0.03 0.03 0.04 0.05 0.05 0.05 0.05 0.03 0.02 0.01 0.01 0.01 0.01 0.01 0.02 0.02 0.01 0.03 0.05 0.04 0.04 0.03 0.01 0.00 0.00 0.00 0.00 0.00 0.01 0.01 0.01 0.01
0.01 0.01 0.01 0.02 0.02 0.02 0.01 0.02 0.02 0.03 0.03 0.03 0.03 0.02 0.01 0.01 0.01 0.01 0.01 0.01 0.01 0.01 0.01 0.01 0.03 0.04 0.04 0.04 0.02 0.01 0.01 0.00 0.00 0.00 0.01 0.01 0.01 0.01
0.01 0.01 0.02 0.02 0.01 0.01 0.01 0.01 0.01 0.01 0.02 0.02 0.02 0.01 0.01 0.01 0.01 0.01 0.01 0.01 0.01 0.01 0.00 0.01 0.02 0.04 0.04 0.03 0.02 0.02 0.01 0.01 0.01 0.01 0.01 0.01 0.00 0.01
0.03 0.04 0.03 0.02 0.01 0.01 0.01 0.01 0.01 0.01 0.01 0.02 0.02 0.02 0.01 0.01 0.01 0.01 0.02 0.02 0.02 0.01 0.01 0.01 0.01 0.02 0.03 0.03 0.03 0.02 0.01 0.01 0.01 0.01 0.01 0.01 0.00 0.00
0.03 0.04 0.03 0.02 0.02 0.02 0.01 0.01 0.01 0.01 0.01 0.01 0.01 0.02 0.02 0.02 0.02 0.02 0.02 0.02 0.02 0.02 0.01 0.01 0.02 0.03 0.02 0.02 0.01 0.01 0.01 0.01 0.01 0.01 0.01 0.01 0.01 0.00
0.02 0.02 0.01 0.01 0.01 0.02 0.02 0.02 0.01 0.01 0.01 0.01 0.02 0.02 0.02 0.02 0.02 0.02 0.02 0.02 0.02 0.01 0.01 0.01 0.02 0.03 0.03 0.02 0.01 0.01 0.01 0.01 0.01 0.01 0.01 0.01 0.01 0.01
0.01 0.01 0.01 0.01 0.01 0.01 0.01 0.01 0.01 0.01 0.01 0.01 0.01 0.01 0.02 0.02 0.02 0.02 0.02 0.02 0.02 0.01 0.01 0.01 0.02 0.02 0.03 0.02 0.02 0.01 0.00 0.01 0.01 0.01 0.01 0.01 0.01 0.00
0.01 0.01 0.01 0.01 0.01 0.01 0.01 0.01 0.01 0.01 0.01 0.01 0.01 0.01 0.02 0.02 0.02 0.02 0.02 0.02 0.02 0.02 0.01 0.01 0.01 0.01 0.02 0.03 0.02 0.01 0.01 0.00 0.01 0.01 0.01 0.02 0.01 0.01
0.01 0.01 0.01 0.01 0.01 0.01 0.01 0.01 0.01 0.01 0.01 0.02 0.02 0.02 0.02 0.02 0.02 0.02 0.02 0.02 0.02 0.01 0.01 0.01 0.01 0.02 0.03 0.03 0.02 0.01 0.01 0.01 0.01 0.01 0.01 0.01 0.01 0.01
0.01 0.01 0.01 0.01 0.01 0.01 0.02 0.02 0.02 0.02 0.01 0.02 0.02 0.02 0.02 0.02 0.02 0.02 0.02 0.02 0.02 0.01 0.02 0.02 0.01 0.02 0.02 0.02 0.02 0.01 0.01 0.01 0.01 0.02 0.02 0.01 0.01 0.01
MSLP
1023.11 1022.93 1022.75 1022.52 1022.25 1021.92 1021.52 1021.06 1020.55 1020.00 1019.44 1018.88 1018.34 1017.83 1017.37 1016.95 1016.55 1016.17 1015.79 1015.40 1014.99 1014.55 1014.09 1013.61 1013.12 1012.65 1012.20 1011.78 1011.41 1011.07 1010.77 1010.48 1010.19 1009.89 1009.58 1009.25 1008.93 1008.63
1022.72 1022.53 1022.33 1022.12 1021.87 1021.58 1021.22 1020.80 1020.33 1019.81 1019.26 1018.69 1018.13 1017.59 1017.09 1016.62 1016.17 1015.75 1015.33 1014.91 1014.48 1014.03 1013.56 1013.07 1012.59 1012.11 1011.66 1011.24 1010.86 1010.51 1010.18 1009.87 1009.56 1009.24 1008.91 1008.58 1008.26 1007.96
1022.22 1021.99 1021.77 1021.56 1021.32 1021.06 1020.75 1020.39 1019.96 1019.49 1018.97 1018.42 1017.86 1017.31 1016.78 1016.27 1015.78 1015.31 1014.86 1014.41 1013.96 1013.49 1013.00 1012.51 1012.01 1011.53 1011.07 1010.63 1010.23 1009.87 1009.53 1009.21 1008.90 1008.59 1008.27 1007.94 1007.63 1007.35
1021.62 1021.35 1021.11 1020.88 1020.66 1020.42 1020.15 1019.83 1019.47 1019.04 1018.57 1018.05 1017.51 1016.96 1016.41 1015.87 1015.36 1014.86 1014.38 1013.90 1013.43 1012.94 1012.44 1011.93 1011.42 1010.91 1010.43 1009.97 1009.56 1009.18 1008.84 1008.53 1008.23 1007.94 1007.65 1007.36 1007.08 1006.82
1020.96 1020.65 1020.38 1020.14 1019.91 1019.69 1019.46 1019.19 1018.87 1018.49 1018.06 1017.58 1017.05 1016.51 1015.95 1015.41 1014.88 1014.36 1013.87 1013.38 1012.89 1012.39 1011.87 1011.35 1010.81 1010.28 1009.77 1009.29 1008.85 1008.46 1008.12 1007.83 1007.56 1007.31 1007.07 1006.83 1006.59 1006.37
1020.24 1019.91 1019.62 1019.36 1019.14 1018.93 1018.71 1018.47 1018.18 1017.84 1017.44 1016.98 1016.47 1015.94 1015.39 1014.84 1014.31 1013.80 1013.31 1012.83 1012.34 1011.84 1011.32 1010.78 1010.22 1009.66 1009.11 1008.60 1008.14 1007.73 1007.39 1007.11 1006.88 1006.68 1006.50 1006.32 1006.14 1005.95
1019.50 1019.16 1018.86 1018.59 1018.36 1018.15 1017.93 1017.70 1017.42 1017.09 1016.70 1016.25 1015.76 1015.24 1014.70 1014.17 1013.66 1013.18 1012.71 1012.26 1011.79 1011.31 1010.80 1010.26 1009.68 1009.10 1008.51 1007.95 1007.45 1007.02 1006.67 1006.39 1006.19 1006.04 1005.91 1005.80 1005.67 1005.54
1018.74 1018.40 1018.10 1017.82 1017.58 1017.36 1017.13 1016.88 1016.60 1016.26 1015.87 1015.42 1014.93 1014.42 1013.91 1013.41 1012.94 1012.49 1012.08 1011.67 1011.26 1010.82 1010.34 1009.81 1009.22 1008.61 1007.98 1007.38 1006.82 1006.35 1005.97 1005.68 1005.49 1005.36 1005.29 1005.23 1005.16 1005.07
1017.96 1017.64 1017.34 1017.06 1016.80 1016.56 1016.31 1016.04 1015.73 1015.37 1014.96 1014.51 1014.02 1013.52 1013.03 1012.57 1012.15 1011.78 1011.43 1011.10 1010.76 1010.39 1009.95 1009.44 1008.86 1008.23 1007.56 1006.91 1006.29 1005.76 1005.33 1005.01 1004.80 1004.68 1004.62 1004.60 1004.58 1004.54
1017.18 1016.86 1016.57 1016.28 1016.01 1015.75 1015.47 1015.16 1014.82 1014.44 1014.01 1013.54 1013.06 1012.58 1012.13 1011.72 1011.36 1011.06 1010.81 1010.56 1010.31 1010.01 1009.63 1009.17 1008.61 1007.97 1007.28 1006.57 1005.90 1005.29 1004.79 1004.41 1004.15 1004.01 1003.95 1003.94 1003.95 1003.95
1016.37 1016.07 1015.77 1015.48 1015.19 1014.90 1014.60 1014.26 1013.90 1013.49 1013.04 1012.58 1012.11 1011.65 1011.24 1010.89 1010.60 1010.38 1010.21 1010.07 1009.91 1009.69 1009.39 1008.98 1008.45 1007.82 1007.12 1006.38 1005.64 1004.97 1004.39 1003.94 1003.62 1003.42 1003.33 1003.31 1003.33 1003.37
1015.55 1015.25 1014.94 1014.64 1014.34 1014.02 1013.69 1013.34 1012.96 1012.54 1012.10 1011.65 1011.20 1010.78 1010.41 1010.12 1009.90 1009.76 1009.67 1009.61 1009.53 1009.40 1009.18 1008.83 1008.36 1007.76 1007.06 1006.30 1005.53 1004.80 1004.16 1003.63 1003.23 1002.97 1002.83 1002.78 1002.79 1002.84
1014.71 1014.39 1014.07 1013.75 1013.43 1013.10 1012.76 1012.40 1012.02 1011.62 1011.20 1010.78 1010.37 1009.99 1009.67 1009.43 1009.27 1009.19 1009.16 1009.17 1009.17 1009.11 1008.96 1008.68 1008.27 1007.72 1007.05 1006.31 1005.53 1004.77 1004.08 1003.49 1003.03 1002.70 1002.50 1002.41 1002.40 1002.45
1013.85 1013.51 1013.17 1012.82 1012.48 1012.15 1011.81 1011.47 1011.11 1010.74 1010.36 1009.99 1009.63 1009.30 1009.03 1008.83 1008.71 1008.67 1008.68 1008.73 1008.77 1008.77 1008.68 1008.48 1008.13 1007.65 1007.05 1006.35 1005.60 1004.85 1004.14 1003.52 1003.01 1002.63 1002.37 1002.24 1002.20 1002.23
1012.98 1012.60 1012.23 1011.86 1011.51 1011.18 1010.85 1010.54 1010.22 1009.91 1009.59 1009.27 1008.97 1008.70 1008.47 1008.30 1008.20 1008.18 1008.20 1008.27 1008.33 1008.36 1008.32 1008.18 1007.91 1007.51 1006.99 1006.36 1005.67 1004.97 1004.28 1003.66 1003.13 1002.72 1002.43 1002.26 1002.19 1002.20
1012.10 1011.69 1011.28 1010.89 1010.53 1010.21 1009.91 1009.63 1009.38 1009.13 1008.88 1008.63 1008.39 1008.17 1007.98 1007.83 1007.74 1007.70 1007.71 1007.77 1007.83 1007.87 1007.86 1007.77 1007.58 1007.27 1006.84 1006.31 1005.71 1005.08 1004.45 1003.87 1003.35 1002.93 1002.62 1002.42 1002.32 1002.30
1011.23 1010.78 1010.34 1009.94 1009.58 1009.27 1009.00 1008.78 1008.58 1008.40 1008.22 1008.05 1007.87 1007.70 1007.54 1007.40 1007.29 1007.23 1007.22 1007.24 1007.28 1007.32 1007.33 1007.28 1007.15 1006.92 1006.60 1006.18 1005.69 1005.15 1004.60 1004.07 1003.59 1003.19 1002.87 1002.66 1002.54 1002.49
1010.37 1009.89 1009.44 1009.03 1008.67 1008.38 1008.15 1007.97 1007.83 1007.72 1007.62 1007.51 1007.39 1007.25 1007.11 1006.98 1006.86 1006.77 1006.72 1006.70 1006.71 1006.74 1006.75 1006.73 1006.66 1006.51 1006.28 1005.97 1005.59 1005.15 1004.69 1004.23 1003.80 1003.42 1003.12 1002.89 1002.75 1002.68
1009.53 1009.04 1008.59 1008.18 1007.83 1007.56 1007.37 1007.23 1007.15 1007.09 1007.04 1006.99 1006.92 1006.82 1006.70 1006.56 1006.43 1006.32 1006.23 1006.19 1006.17 1006.18 1006.19 1006.20 1006.17 1006.09 1005.94 1005.72 1005.43 1005.09 1004.71 1004.31 1003.93 1003.59 1003.29 1003.07 1002.91 1002.82
1008.72 1008.24 1007.79 1007.39 1007.07 1006.82 1006.65 1006.55 1006.51 1006.49 1006.49 1006.47 1006.43 1006.36 1006.26 1006.13 1006.00 1005.87 1005.77 1005.70 1005.67 1005.67 1005.70 1005.72 1005.73 1005.71 1005.63 1005.48 1005.27 1004.99 1004.68 1004.33 1003.99 1003.67 1003.39 1003.16 1002.99 1002.87
1007.94 1007.48 1007.05 1006.68 1006.37 1006.14 1005.99 1005.92 1005.89 1005.90 1005.92 1005.93 1005.91 1005.86 1005.78 1005.66 1005.54 1005.42 1005.32 1005.25 1005.22 1005.24 1005.28 1005.33 1005.38 1005.39 1005.36 1005.27 1005.11 1004.89 1004.62 1004.31 1003.99 1003.69 1003.41 1003.17 1002.99 1002.85
1007.18 1006.76 1006.36 1006.01 1005.72 1005.51 1005.38 1005.31 1005.29 1005.31 1005.33 1005.35 1005.35 1005.31 1005.24 1005.14 1005.04 1004.94 1004.86 1004.82 1004.82 1004.86 1004.93 1005.02 1005.10 1005.15 1005.16 1005.11 1004.99 1004.80 1004.56 1004.27 1003.97 1003.67 1003.39 1003.15 1002.95 1002.79
1006.44 1006.05 1005.69 1005.37 1005.10 1004.91 1004.78 1004.70 1004.68 1004.69 1004.71 1004.72 1004.71 1004.68 1004.62 1004.55 1004.47 1004.41 1004.37 1004.37 1004.41 1004.50 1004.61 1004.74 1004.87 1004.96 1005.01 1004.99 1004.90 1004.74 1004.51 1004.24 1003.95 1003.66 1003.38 1003.13 1002.92 1002.76
Thickness
5500 5495 5491 5488 5484 5480 5476 5473 5470 5475 5484 5481 5475 5470 5464 5461 5458 5455 5455 5454 5451 5449 5448 5447 5447 5447 5448 5448 5449 5451 5452 5454 5455 5457 5460 5463 5467 5471
5490 5486 5482 5479 5475 5470 5465 5462 5458 5457 5463 5467 5461 5455 5451 5447 5443 5440 5439 5437 5436 5434 5432 5430 5429 5429 5429 5429 5430 5431 5432 5434 5435 5437 5440 5444 5447 5451
5483 5478 5474 5469 5465 5460 5456 5452 5448 5445 5447 5453 5446 5442 5436 5432 5428 5424 5422 5420 5420 5417 5414 5412 5410 5410 5409 5409 5410 5410 5411 5412 5414 5416 5419 5423 5427 5431
5474 5469 5465 5460 5455 5450 5446 5442 5437 5433 5431 5435 5434 5427 5422 5416 5411 5408 5404 5402 5400 5399 5395 5392 5391 5390 5389 5389 5389 5389 5390 5392 5393 5396 5399 5403 5407 5411
5465 5461 5456 5450 5446 5441 5435 5430 5425 5420 5416 5415 5417 5411 5406 5399 5394 5391 5387 5384 5382 5379 5376 5373 5371 5370 5370 5369 5369 5370 5371 5373 5375 5377 5380 5384 5388 5392
5456 5450 5445 5440 5434 5429 5423 5417 5411 5406 5401 5398 5398 5395 5389 5383 5376 5373 5371 5367 5363 5359 5356 5354 5352 5351 5351 5351 5352 5352 5354 5355 5358 5361 5364 5368 5371 5375
5446 5441 5435 5429 5422 5415 5409 5404 5397 5391 5387 5382 5381 5378 5374 5367 5360 5355 5352 5349 5346 5340 5339 5337 5335 5335 5335 5336 5336 5337 5339 5341 5344 5347 5350 5354 5358 5362
5437 5432 5426 5419 5411 5404 5397 5390 5383 5376 5371 5366 5364 5360 5357 5350 5343 5337 5333 5331 5330 5326 5322 5322 5318 5320 5320 5322 5324 5325 5326 5329 5332 5335 5339 5342 5346 5350
5426 5420 5414 5407 5398 5391 5385 5379 5371 5362 5354 5348 5345 5342 5337 5332 5325 5322 5317 5314 5313 5310 5305 5309 5307 5309 5311 5313 5314 5314 5316 5319 5322 5326 5329 5333 5336 5340
5413 5406 5399 5393 5384 5375 5369 5364 5358 5351 5343 5335 5330 5327 5321 5315 5309 5305 5302 5300 5300 5297 5293 5295 5299 5300 5303 5304 5306 5306 5308 5311 5314 5317 5321 5324 5328 5332
5401 5393 5385 5378 5370 5360 5353 5348 5344 5339 5331 5324 5318 5312 5307 5302 5296 5291 5288 5286 5289 5290 5286 5285 5288 5291 5294 5296 5298 5299 5301 5303 5306 5309 5313 5316 5320 5324
5389 5381 5372 5363 5355 5345 5337 5332 5328 5324 5317 5313 5307 5301 5296 5291 5286 5280 5276 5275 5276 5279 5279 5276 5278 5278 5283 5289 5290 5292 5294 5297 5300 5303 5306 5310 5313 5317
5375 5368 5360 5350 5341 5332 5323 5317 5313 5307 5303 5297 5293 5289 5284 5280 5276 5271 5267 5264 5264 5267 5267 5264 5266 5267 5269 5277 5280 5283 5287 5291 5294 5298 5301 5304 5307 5311
5359 5353 5346 5337 5328 5320 5313 5306 5300 5293 5289 5284 5281 5277 5273 5270 5267 5264 5260 5257 5256 5257 5257 5255 5257 5259 5263 5268 5273 5278 5281 5283 5287 5292 5296 5300 5302 5306
5343 5337 5330 5323 5315 5309 5302 5294 5286 5281 5276 5272 5270 5267 5263 5261 5259 5256 5254 5252 5251 5251 5251 5251 5252 5255 5257 5261 5266 5271 5274 5278 5282 5287 5291 5294 5297 5301
5328 5323 5317 5310 5302 5296 5290 5283 5276 5270 5264 5260 5258 5256 5254 5252 5251 5250 5249 5248 5248 5250 5250 5250 5250 5251 5254 5258 5261 5265 5269 5273 5278 5281 5285 5288 5292 5296
5314 5309 5304 5298 5292 5286 5280 5273 5266 5260 5255 5251 5248 5247 5246 5245 5245 5244 5242 5243 5244 5247 5248 5248 5248 5248 5250 5253 5258 5262 5266 5270 5273 5277 5280 5284 5289 5292
5301 5296 5291 5286 5280 5274 5268 5262 5257 5251 5247 5243 5240 5239 5238 5238 5239 5238 5238 5239 5241 5243 5244 5245 5245 5247 5249 5253 5254 5258 5262 5266 5270 5273 5276 5280 5285 5289
5288 5284 5279 5273 5268 5262 5256 5251 5247 5243 5239 5236 5233 5232 5232 5233 5233 5234 5234 5236 5238 5239 5240 5241 5242 5244 5248 5254 5257 5255 5258 5262 5266 5269 5273 5276 5280 5285
5278 5272 5267 5262 5256 5251 5246 5242 5238 5235 5232 5230 5228 5227 5227 5227 5229 5230 5231 5232 5234 5235 5237 5238 5239 5241 5244 5248 5250 5252 5253 5256 5261 5265 5269 5272 5275 5279
5268 5262 5256 5251 5247 5242 5238 5235 5232 5229 5227 5225 5224 5223 5223 5223 5225 5226 5228 5229 5230 5232 5234 5236 5237 5237 5238 5240 5244 5249 5251 5252 5255 5259 5263 5268 5272 5277
5257 5252 5248 5243 5239 5235 5232 5229 5226 5225 5223 5221 5221 5220 5220 5220 5221 5222 5224 5226 5227 5229 5231 5233 5233 5234 5236 5239 5243 5246 5248 5250 5252 5255 5258 5262 5267 5273
5249 5244 5240 5237 5233 5230 5226 5224 5222 5221 5220 5218 5218 5217 5217 5218 5219 5220 5221 5223 5224 5226 5227 5229 5230 5232 5234 5237 5240 5242 5244 5246 5250 5253 5257 5260 5263 5266